| time (UTC) | temp C | wind direction | speed KPH | gust KPH | rain 1hr cm | rain 24hr cm | rain mn cm | humidity % | barometer mb |
| 20260506061527 | 6 | 360 | 1.6 | 6.4 | 0.00 | 0.00 | 0.00 | 55 | 1013.0 |
| 20260506044616 | 2 | 337 | 3.2 | 8.0 | 0.00 | 0.00 | 0.00 | 56 | 1012.9 |
| 20260506043056 | 1 | 350 | 1.6 | 6.4 | 0.00 | 0.00 | 0.00 | 54 | 1012.9 |
| 20260506041605 | 1 | 318 | 1.6 | 8.0 | 0.00 | 0.00 | 0.00 | 52 | 1012.9 |
| 20260506040053 | 0 | 318 | 3.2 | 8.0 | 0.00 | 0.00 | 0.00 | 52 | 1012.8 |
| 20260506034544 | 0 | 316 | 3.2 | 8.0 | 0.00 | 0.00 | 0.00 | 50 | 1012.9 |
| 20260506033039 | 0 | 316 | 3.2 | 6.4 | 0.00 | 0.00 | 0.00 | 47 | 1013.0 |
| 20260506031534 | 0 | 316 | 3.2 | 8.0 | 0.00 | 0.00 | 0.00 | 47 | 1012.9 |
| 20260506030030 | 0 | 316 | 1.6 | 4.8 | 0.00 | 0.00 | 0.00 | 45 | 1012.8 |
| 20260506024525 | 0 | 316 | 1.6 | 6.4 | 0.00 | 0.00 | 0.00 | 32 | 1013.0 |
| 20260506023021 | 0 | 316 | 1.6 | 4.8 | 0.00 | 0.00 | 0.00 | 17 | 1012.8 |
| 20260506021516 | 0 | 316 | 3.2 | 4.8 | 0.00 | 0.00 | 0.00 | 11 | 1012.9 |
| 20260506020023 | 0 | 316 | 1.6 | 3.2 | 0.00 | 0.00 | 0.00 | 3 | 1012.9 |
| 20260506014509 | -1 | 316 | 0.0 | 0.0 | 0.00 | 0.00 | 0.00 | 1 | 1012.7 |
| 20260506013005 | -1 | 316 | 0.0 | 0.0 | 0.00 | 0.00 | 0.00 | 4 | 1012.7 |
| 20260506011602 | 0 | 316 | 0.0 | 0.0 | 0.00 | 0.00 | 0.00 | 9 | 1012.6 |
| 20260506010055 | 0 | 316 | 0.0 | 3.2 | 0.00 | 0.00 | 0.00 | 3 | 1012.4 |
| 20260506004550 | 0 | 316 | 0.0 | 1.6 | 0.00 | 0.00 | 0.00 | 15 | 1012.3 |
| 20260506003047 | 0 | 316 | 1.6 | 3.2 | 0.00 | 0.00 | 0.00 | 30 | 1012.3 |
| 20260506001548 | 0 | 316 | 0.0 | 3.2 | 0.00 | 0.00 | 0.00 | 38 | 1012.3 |
| 20260506000055 | 0 | 316 | 1.6 | 4.8 | 0.00 | 0.00 | 0.00 | 36 | 1012.2 |
| 20260505234543 | 1 | 316 | 1.6 | 4.8 | 0.00 | 0.00 | 0.00 | 37 | 1012.3 |
| 20260505233037 | 1 | 316 | 1.6 | 4.8 | 0.00 | 0.00 | 0.00 | 32 | 1012.4 |
| 20260505231535 | 1 | 316 | 0.0 | 3.2 | 0.00 | 0.00 | 0.00 | 37 | 1012.2 |
| 20260505230041 | 2 | 316 | 0.0 | 4.8 | 0.00 | 0.00 | 0.00 | 49 | 1012.2 |
| 20260505224528 | 2 | 316 | 1.6 | 3.2 | 0.00 | 0.00 | 0.00 | 50 | 1012.2 |
| 20260505223025 | 2 | 316 | 0.0 | 0.0 | 0.00 | 0.00 | 0.00 | 46 | 1012.3 |
| 20260505221523 | 2 | 316 | 0.0 | 3.2 | 0.00 | 0.00 | 0.00 | 49 | 1012.2 |
| 20260505220018 | 3 | 316 | 0.0 | 3.2 | 0.00 | 0.00 | 0.00 | 55 | 1012.0 |
| 20260505214514 | 4 | 316 | 1.6 | 3.2 | 0.00 | 0.00 | 0.00 | 57 | 1012.0 |
| 20260505213010 | 5 | 316 | 0.0 | 3.2 | 0.00 | 0.00 | 0.00 | 57 | 1012.0 |
| 20260505211506 | 6 | 316 | 0.0 | 4.8 | 0.00 | 0.00 | 0.00 | 52 | 1011.9 |
| 20260505210001 | 7 | 316 | 1.6 | 4.8 | 0.00 | 0.00 | 0.00 | 47 | 1011.8 |
| 20260505204605 | 7 | 316 | 1.6 | 8.0 | 0.00 | 0.00 | 0.00 | 45 | 1011.7 |
| 20260505203056 | 7 | 311 | 3.2 | 16.1 | 0.00 | 0.00 | 0.00 | 42 | 1011.4 |
| 20260505201549 | 8 | 294 | 6.4 | 16.1 | 0.00 | 0.00 | 0.00 | 42 | 1011.3 |
| 20260505200045 | 8 | 294 | 6.4 | 12.9 | 0.00 | 0.00 | 0.00 | 42 | 1011.2 |
| 20260505194539 | 8 | 299 | 4.8 | 12.9 | 0.00 | 0.00 | 0.00 | 41 | 1011.2 |
| 20260505193035 | -17 | 0.0 | 0.0 | 0.00 | 0.00 | 0.00 | 1011.0 | ||
| 20260505191535 | -17 | 0.0 | 0.0 | 0.00 | 0.00 | 0.00 | 1010.8 | ||
| 20260505190027 | -17 | 0.0 | 0.0 | 0.00 | 0.00 | 0.00 | 1010.7 | ||
| 20260505184529 | -17 | 0.0 | 0.0 | 0.00 | 0.00 | 0.00 | 1010.7 | ||
| 20260505183021 | -17 | 0.0 | 0.0 | 0.00 | 0.00 | 0.00 | 1010.6 | ||
| 20260505181514 | -17 | 0.0 | 0.0 | 0.00 | 0.00 | 0.00 | 1010.5 | ||
| 20260505180009 | -17 | 0.0 | 0.0 | 0.00 | 0.00 | 0.00 | 1010.4 | ||
| 20260505174505 | -17 | 0.0 | 0.0 | 0.00 | 0.00 | 0.00 | 1010.3 | ||
| 20260505173000 | -17 | 0.0 | 0.0 | 0.00 | 0.00 | 0.00 | 1010.2 | ||
| 20260505171603 | -17 | 0.0 | 0.0 | 0.00 | 0.00 | 0.00 | 1010.1 | ||
| 20260505170053 | -17 | 0.0 | 0.0 | 0.00 | 0.00 | 0.00 | 1010.1 | ||
| 20260505164549 | -17 | 0.0 | 0.0 | 0.00 | 0.00 | 0.00 | 1010.0 | ||
| 20260505163046 | -17 | 0.0 | 0.0 | 0.00 | 0.00 | 0.00 | 1009.8 | ||
| 20260505161539 | -17 | 0.0 | 0.0 | 0.00 | 0.00 | 0.00 | 1009.8 | ||
| 20260505153036 | -17 | 0.0 | 0.0 | 0.00 | 0.00 | 0.00 | 1009.6 | ||
| 20260505151523 | -17 | 0.0 | 0.0 | 0.00 | 0.00 | 0.00 | 1009.6 | ||
| 20260505124540 | -17 | 0.0 | 0.0 | 0.00 | 0.00 | 0.00 | 1009.7 | ||
| 20260505123047 | -17 | 0.0 | 0.0 | 0.00 | 0.00 | 0.00 | 1009.8 | ||
| 20260505121531 | -17 | 0.0 | 0.0 | 0.00 | 0.00 | 0.00 | 1009.9 | ||
| 20260505120026 | -17 | 0.0 | 0.0 | 0.00 | 0.00 | 0.00 | 1009.7 | ||
| 20260505114522 | -17 | 0.0 | 0.0 | 0.00 | 0.00 | 0.00 | 1010.0 | ||
| 20260505113017 | -17 | 0.0 | 0.0 | 0.00 | 0.00 | 0.00 | 1010.0 | ||
| 20260505111514 | -17 | 0.0 | 0.0 | 0.00 | 0.00 | 0.00 | 1009.9 | ||
| 20260505101602 | -17 | 0.0 | 0.0 | 0.00 | 0.00 | 0.00 | 1010.0 | ||
| 20260505100052 | -17 | 0.0 | 0.0 | 0.00 | 0.00 | 0.00 | 1010.0 | ||
| 20260505094548 | -17 | 0.0 | 0.0 | 0.00 | 0.00 | 0.00 | 1010.0 | ||
| 20260505093043 | -17 | 0.0 | 0.0 | 0.00 | 0.00 | 0.00 | 1009.9 | ||
| 20260505091548 | -17 | 0.0 | 0.0 | 0.00 | 0.00 | 0.00 | 1010.0 | ||
| 20260505090036 | -17 | 0.0 | 0.0 | 0.00 | 0.00 | 0.00 | 1009.9 | ||
| 20260505084535 | -17 | 0.0 | 0.0 | 0.00 | 0.00 | 0.00 | 1009.8 | ||
| 20260505083025 | -17 | 0.0 | 0.0 | 0.00 | 0.00 | 0.00 | 1009.8 | ||
| 20260505081523 | -17 | 0.0 | 0.0 | 0.00 | 0.00 | 0.00 | 1009.7 | ||
| 20260505080016 | -17 | 0.0 | 0.0 | 0.00 | 0.00 | 0.00 | 1009.7 | ||
| 20260505074513 | 10 | 238 | 11.3 | 25.7 | 0.00 | 0.00 | 0.00 | 54 | 1009.7 |
| 20260505073008 | 10 | 246 | 9.7 | 22.5 | 0.00 | 0.00 | 0.00 | 53 | 1009.8 |
| 20260505071503 | 10 | 269 | 8.0 | 20.9 | 0.00 | 0.00 | 0.00 | 54 | 1009.6 |